Greenville, ME

2:22 PM EDT on March 23, 2017 (GMT -0400)
Greenville

Weather History for KGNR - February, 2014

Change the Weather History Date:

Sunday, February 9, 2014

  Actual Average (KMLT) Record (KMLT)
Temperature  
Mean Temperature 9 °F -  
Max Temperature 17 °F 25 °F 48 °F (1925)
Min Temperature 1 °F 2 °F -25 °F (1918)
Degree Days  
Heating Degree Days 56    
Moisture  
Dew Point 1 °F    
Average Humidity 66    
Maximum Humidity 84    
Minimum Humidity 47    
Precipitation  
Precipitation 0.01 in - - ()
Sea Level Pressure  
Sea Level Pressure 30.05 in    
Wind  
Wind Speed 3 mph (North)    
Max Wind Speed 7 mph    
Max Gust Speed -    
Averages and records for this station are not official NWS values.
T = Trace of Precipitation, MM = Missing Value Source: NWS Daily Summary

Daily Weather History Graph

Daily Weather History Graph

Search for Another Location

Airport or City:

Trip Planner

Search our weather history database for the weather conditions in past years. The results will help you decide how hot, cold, wet, or windy it might be!

Date:

Astronomy

Feb. 09, 2014 Rise Set
Actual Time 6:48 AM EST 4:56 PM EST
Civil Twilight 6:18 AM EST 5:27 PM EST
Nautical Twilight 5:43 AM EST 6:02 PM EST
Astronomical Twilight 5:08 AM EST 6:37 PM EST
Moon 12:29 PM EST (2/9) 2:56 AM EST (2/9)
Length of Visible Light 11h 09m
Length of Day
10h 07m
Waxing Gibbous, 77% of the Moon is Illuminated
Feb 9
Waxing Gibbous
Feb 14
Full
Feb 22
Last Quarter
Mar 1
New
Mar 8
First Quarter

Hourly Weather History & Observations

Time (EST) Temp. Windchill Dew Point Humidity Pressure Visibility Wind Dir Wind Speed Gust Speed Precip Events Conditions
12:56 AM 8.1 °F -3.2 °F -0.0 °F 70% 30.09 in - NNW 6.9 mph - N/A   Unknown
1:56 AM 8.1 °F -3.2 °F -0.0 °F 70% 30.09 in - NNW 6.9 mph - N/A   Unknown
2:56 AM 8.1 °F - -0.0 °F 70% 30.09 in - Calm Calm - N/A   Unknown
3:56 AM 6.1 °F - -0.0 °F 76% 30.10 in - Calm Calm - N/A   Unknown
4:56 AM 6.1 °F - -0.0 °F 76% 30.11 in - Calm Calm - N/A   Unknown
5:56 AM 6.1 °F -0.9 °F -0.0 °F 76% 30.11 in - North 3.5 mph - N/A   Unknown
6:56 AM 1.9 °F - -4.0 °F 76% 30.12 in - Calm Calm - N/A   Unknown
7:56 AM 5.0 °F - -0.0 °F 80% 30.12 in - Calm Calm - N/A   Unknown
8:56 AM 10.0 °F 3.6 °F 1.9 °F 70% 30.12 in - Variable 3.5 mph - N/A   Unknown
9:56 AM 12.0 °F 5.9 °F 1.9 °F 64% 30.12 in - Variable 3.5 mph - N/A   Unknown
10:56 AM 14.0 °F 3.9 °F 1.0 °F 56% 30.09 in - NNW 6.9 mph - N/A   Unknown
11:56 AM 15.1 °F - 1.9 °F 56% 30.06 in - North - - N/A   Unknown
12:56 PM 16.0 °F 6.3 °F 1.0 °F 52% 30.04 in - Variable 6.9 mph - N/A   Unknown
1:56 PM 17.1 °F 8.7 °F -0.0 °F 47% 29.99 in - Variable 5.8 mph - N/A   Unknown
2:56 PM 16.0 °F 8.8 °F 1.0 °F 52% 30.01 in - North 4.6 mph - N/A   Unknown
3:56 PM 16.0 °F 10.4 °F -0.0 °F 49% 30.01 in - North 3.5 mph - N/A   Unknown
4:56 PM 14.0 °F 8.2 °F 1.0 °F 56% 30.00 in - NNE 3.5 mph - N/A   Unknown
5:56 PM 14.0 °F 8.2 °F 1.0 °F 56% 30.00 in - North 3.5 mph - N/A   Unknown
6:56 PM 14.0 °F - 1.0 °F 56% 30.00 in - Calm Calm - N/A   Unknown
7:56 PM 12.0 °F - 3.0 °F 67% 30.00 in - Calm Calm - N/A   Unknown
8:56 PM 12.9 °F - 1.9 °F 62% 29.99 in - Calm Calm - N/A   Unknown
9:56 PM 12.0 °F - 6.1 °F 77% 29.97 in - Calm Calm - N/A   Unknown
10:56 PM 12.0 °F - 8.1 °F 84% 29.96 in - Calm Calm - 0.01 in   Unknown
11:56 PM 10.9 °F 2.9 °F 7.0 °F 84% 29.94 in - ENE 4.6 mph - N/A   Unknown